Weather History for Fairfield, CA

Change the Weather History Date:

Sunday, October 21, 2012

  Actual Average Record
Temperature  
Mean Temperature 59 °F -  
Max Temperature 69 °F 73 °F 91 °F (2003)
Min Temperature 50 °F 49 °F 42 °F (2004)
Degree Days  
Heating Degree Days 6    
Growing Degree Days 9 (Base 50)    
Moisture  
Dew Point 41 °F    
Average Humidity 57    
Maximum Humidity 88    
Minimum Humidity 29    
Precipitation  
Precipitation 0.00 in - - ()
Sea Level Pressure  
Sea Level Pressure 29.83 in    
Wind  
Wind Speed 16 mph (WSW)    
Max Wind Speed 21 mph    
Max Gust Speed 23 mph    
Visibility 10 miles    
Events Rain    
Averages and records for this station are not official NWS values.
T = Trace of Precipitation, MM = Missing Value Source: NWS Daily Summary

Daily Weather History Graph

Daily Weather History Graph

Search for Another Location

Airport:

Trip Planner

Search our weather history database for the weather conditions in past years. The results will help you decide how hot, cold, wet, or windy it might be!

Date:

Astronomy

Oct. 21, 2012 Rise Set
Actual Time 7:23 AM PDT 6:20 PM PDT
Civil Twilight 6:56 AM PDT 6:47 PM PDT
Nautical Twilight 6:25 AM PDT 7:18 PM PDT
Astronomical Twilight 5:54 AM PDT 7:49 PM PDT
Moon 1:46 PM PDT (10/21) No Moon Set
Length of Visible Light 11h 51m
Length of Day
10h 57m
Waxing Crescent, 46% of the Moon is Illuminated
Oct 21
Waxing Crescent
Oct 21
First Quarter
Oct 29
Full
Nov 6
Last Quarter
Nov 13
New

Hourly Weather History & Observations

Time (PDT) Temp. Dew Point Humidity Pressure Visibility Wind Dir Wind Speed Gust Speed Precip Events Conditions
12:55 AM 54.3 °F 47.1 °F 77% 29.78 in 10.0 mi SW 15.0 mph - N/A   Clear
1:55 AM 54.3 °F 46.2 °F 74% 29.79 in 10.0 mi WSW 18.4 mph - N/A   Clear
2:55 AM 53.1 °F 43.9 °F 71% 29.79 in 10.0 mi WSW 16.1 mph - N/A   Clear
3:55 AM 52.3 °F 43.7 °F 72% 29.79 in 10.0 mi SW 13.8 mph - N/A   Clear
4:55 AM 51.1 °F 41.9 °F 71% 29.81 in 10.0 mi WSW 17.3 mph - N/A   Clear
5:55 AM 50.9 °F 41.4 °F 70% 29.81 in 10.0 mi WSW 15.0 mph - N/A   Clear
6:55 AM 51.3 °F 41.2 °F 68% 29.82 in 10.0 mi WSW 17.3 mph - N/A   Clear
7:55 AM 52.9 °F 39.0 °F 59% 29.84 in 10.0 mi WSW 17.3 mph - N/A   Clear
8:55 AM 54.0 °F 36.9 °F 52% 29.87 in 10.0 mi WSW 15.0 mph - N/A   Clear
9:55 AM 56.1 °F 37.8 °F 50% 29.89 in 10.0 mi West 12.7 mph - N/A   Partly Cloudy
10:55 AM 58.1 °F 34.2 °F 41% 29.89 in 10.0 mi WSW 17.3 mph - N/A   Mostly Cloudy
11:55 AM 61.5 °F 32.7 °F 34% 29.89 in 10.0 mi WSW 17.3 mph - N/A   Mostly Cloudy
12:55 PM 64.0 °F 33.3 °F 32% 29.88 in 10.0 mi WSW 17.3 mph - N/A   Mostly Cloudy
1:55 PM 65.3 °F 36.7 °F 35% 29.86 in 10.0 mi SW 16.1 mph - N/A   Mostly Cloudy
2:55 PM 67.8 °F 35.6 °F 30% 29.84 in 10.0 mi WSW 18.4 mph - N/A   Partly Cloudy
3:55 PM 68.7 °F 34.7 °F 29% 29.83 in 10.0 mi SW 20.7 mph - N/A   Mostly Cloudy
4:55 PM 66.4 °F 35.2 °F 32% 29.82 in 10.0 mi SW 19.6 mph - N/A   Partly Cloudy
5:55 PM 62.6 °F 38.3 °F 41% 29.83 in 10.0 mi WSW 17.3 mph - N/A   Clear
6:55 PM 58.1 °F 39.9 °F 51% 29.84 in 10.0 mi WSW 11.5 mph - N/A   Clear
7:55 PM 56.5 °F 41.7 °F 58% 29.82 in 10.0 mi WSW 15.0 mph - N/A   Partly Cloudy
8:55 PM 55.8 °F 43.5 °F 63% 29.83 in 10.0 mi WSW 17.3 mph - N/A   Overcast
9:55 PM 55.8 °F 44.1 °F 65% 29.83 in 10.0 mi SW 16.1 mph 23.0 mph N/A   Overcast
10:55 PM 55.6 °F 45.9 °F 70% 29.83 in 10.0 mi WSW 11.5 mph - N/A   Overcast
11:28 PM 55.4 °F 46.4 °F 72% 29.84 in 10.0 mi WSW 15.0 mph - N/A Rain Light Rain
11:40 PM 53.6 °F 48.2 °F 82% 29.84 in 9.0 mi SW 12.7 mph - N/A   Mostly Cloudy
11:55 PM 53.2 °F 49.8 °F 88% 29.84 in 10.0 mi SW 9.2 mph - 0.00 in   Overcast